Terug naar catalogus

SL-8 R/B

ActiefPO
NORAD 19325·ROCKET BODY·🇷🇺 Russia

Gelanceerd Jul 18, 1988 vanaf Plesetsk Cosmodrome

Loading…

Volgende Passages (komende 24 uur)

TLE

VersSource: Space-Track

Epoch: Sep 14, 2026, 20:19 UTC

1 19325U 88062B   26257.84702800  .00000109  00000-0  93111-4 0  9994
2 19325  82.9519  32.8032 0034731 130.4319  31.8225 13.77921535880205

Volg SL-8 R/B in realtime met AllMySat

Download on the App Store